Weather History for Jefferson City, MO

Change the Weather History Date:

Wednesday, December 4, 2013

  Actual Average Record
Temperature  
Mean Temperature 49 °F -  
Max Temperature 66 °F 47 °F 75 °F (1933)
Min Temperature 30 °F 25 °F 0 °F (2006)
Degree Days  
Heating Degree Days 16    
Moisture  
Dew Point 42 °F    
Average Humidity 76    
Maximum Humidity 89    
Minimum Humidity 48    
Precipitation  
Precipitation 0.00 in - - ()
Sea Level Pressure  
Sea Level Pressure 29.66 in    
Wind  
Wind Speed 9 mph (SW)    
Max Wind Speed 20 mph    
Max Gust Speed 28 mph    
Visibility 9 miles    
Events      
Averages and records for this station are not official NWS values.
T = Trace of Precipitation, MM = Missing Value Source: NWS Daily Summary

Daily Weather History Graph

Daily Weather History Graph

Search for Another Location

Airport:

Trip Planner

Search our weather history database for the weather conditions in past years. The results will help you decide how hot, cold, wet, or windy it might be!

Date:

Astronomy

Dec. 04, 2013 Rise Set
Actual Time 7:10 AM CST 4:47 PM CST
Civil Twilight 6:41 AM CST 5:16 PM CST
Nautical Twilight 6:08 AM CST 5:49 PM CST
Astronomical Twilight 5:35 AM CST 6:21 PM CST
Moon 8:39 AM CST (12/4) 6:57 PM CST (12/4)
Length of Visible Light 10h 35m
Length of Day
9h 36m
Waxing Crescent, 4% of the Moon is Illuminated
Dec 4
Waxing Crescent
Dec 9
First Quarter
Dec 17
Full
Dec 25
Last Quarter
Jan 1
New

Hourly Weather History & Observations

Time (CST) Temp. Windchill Dew Point Humidity Pressure Visibility Wind Dir Wind Speed Gust Speed Precip Events Conditions
12:53 AM 54.0 °F - 50.0 °F 86% 29.60 in 8.0 mi ESE 5.8 mph - N/A   Overcast
1:35 AM 53.6 °F - 50.0 °F 88% 29.62 in 8.0 mi ESE 5.8 mph - N/A   Overcast
1:53 AM 53.1 °F - 48.9 °F 86% 29.59 in 7.0 mi ESE 4.6 mph - N/A   Overcast
2:53 AM 54.0 °F - 50.0 °F 86% 29.59 in 8.0 mi East 3.5 mph - N/A   Overcast
3:53 AM 55.0 °F - 50.0 °F 83% 29.56 in 9.0 mi East 8.1 mph - N/A   Overcast
4:53 AM 54.0 °F - 48.9 °F 83% 29.58 in 9.0 mi East 4.6 mph - N/A   Overcast
5:53 AM 54.0 °F - 48.9 °F 83% 29.57 in 10.0 mi ESE 4.6 mph - N/A   Overcast
6:53 AM 53.1 °F - 48.9 °F 86% 29.58 in 10.0 mi East 5.8 mph - N/A   Overcast
7:53 AM 53.1 °F - 48.9 °F 86% 29.57 in 10.0 mi SE 5.8 mph - N/A   Overcast
8:35 AM 51.8 °F - 48.2 °F 88% 29.59 in 8.0 mi SE 5.8 mph - N/A   Scattered Clouds
8:53 AM 52.0 °F - 48.9 °F 89% 29.54 in 8.0 mi ESE 8.1 mph - N/A   Clear
9:53 AM 55.9 °F - 50.0 °F 80% 29.56 in 10.0 mi SSE 5.8 mph - N/A   Partly Cloudy
10:53 AM 60.1 °F - 50.0 °F 69% 29.54 in 10.0 mi SSE 8.1 mph - N/A   Clear
11:53 AM 64.9 °F - 46.9 °F 52% 29.50 in 10.0 mi SW 17.3 mph 24.2 mph N/A   Clear
12:53 PM 64.9 °F - 45.0 °F 48% 29.50 in 10.0 mi SW 15.0 mph 21.9 mph N/A   Partly Cloudy
1:53 PM 66.0 °F - 46.0 °F 48% 29.51 in 10.0 mi West 15.0 mph 21.9 mph N/A   Partly Cloudy
2:53 PM 61.0 °F - 45.0 °F 56% 29.56 in 10.0 mi West 15.0 mph 25.3 mph N/A   Partly Cloudy
3:53 PM 54.0 °F - 44.1 °F 69% 29.63 in 8.0 mi West 19.6 mph 27.6 mph N/A   Overcast
4:46 PM 46.4 °F 39.8 °F 41.0 °F 81% 29.72 in 8.0 mi WNW 16.1 mph - N/A   Overcast
4:53 PM 46.9 °F - 41.0 °F 80% 29.69 in 8.0 mi WNW 15.0 mph - N/A   Overcast
5:53 PM 44.1 °F 36.8 °F 37.9 °F 79% 29.75 in 7.0 mi West 16.1 mph - N/A   Overcast
6:53 PM 41.0 °F 33.9 °F 34.0 °F 76% 29.78 in 8.0 mi WNW 12.7 mph - N/A   Overcast
7:36 PM 39.2 °F 30.5 °F 32.0 °F 75% 29.84 in 8.0 mi WNW 16.1 mph - N/A   Overcast
7:53 PM 37.9 °F 30.0 °F 30.9 °F 76% 29.82 in 8.0 mi NW 12.7 mph 26.5 mph N/A   Overcast
8:53 PM 36.0 °F 27.5 °F 28.9 °F 76% 29.86 in 8.0 mi WNW 12.7 mph - N/A   Overcast
9:53 PM 34.0 °F 24.2 °F 27.0 °F 75% 29.89 in 8.0 mi WNW 15.0 mph 21.9 mph N/A   Overcast
10:53 PM 32.0 °F 21.6 °F 25.0 °F 75% 29.92 in 8.0 mi WNW 15.0 mph 20.7 mph N/A   Overcast
11:53 PM 30.9 °F 20.2 °F 21.9 °F 69% 29.93 in 10.0 mi NW 15.0 mph 21.9 mph N/A   Overcast